Overview Statistics Trail Chart Weather Telemetry Raw packets
 

This is the latest recevied weather packets stored in our database for station/object EA3CH. If no packets are shown the sender has not sent any weather packets the latest 10 day(s).

<< 33 34 35 36 37 38 39 >>
Time Temp. Humidity Pressure Rain* Wind** Luminosity Snow
1787939104 23.89° C 41% 1018.2 hPa 0 mm - 0 W/m² -
1787938204 24.44° C 41% 1018.2 hPa 0 mm - 0 W/m² -
1787937304 25° C 30% 1018.2 hPa 0 mm - 0 W/m² -
1787937304 25° C 39% 1018.3 hPa 0 mm - 0 W/m² -
1787936404 25.56° C 37% 1018.4 hPa 0 mm - 0 W/m² -
1787935504 25.56° C 36% 1018.3 hPa 0 mm - 0 W/m² -
1787934603 26.11° C 35% 1018.3 hPa 0 mm - 0 W/m² -
1787933707 26.67° C 26% 1018.1 hPa 0 mm - 0 W/m² -
1787933704 26.11° C 35% 1018.3 hPa 0 mm - 0 W/m² -
1787932804 26.67° C 35% 1018.1 hPa 0 mm - 0 W/m² -
1787931906 27.22° C 25% 1017.9 hPa 0 mm - 0 W/m² -
1787931903 27.22° C 34% 1018.1 hPa 0 mm - 0 W/m² -
1787931004 26.67° C 35% 1017.9 hPa 0 mm - 0 W/m² -
1787930113 26.67° C 34% 1018 hPa 0 mm - 0 W/m² -
1787929206 27.22° C 34% 1018 hPa 0 mm - 0 W/m² -
1787928306 27.22° C 25% 1018 hPa 0 mm - 0 W/m² -
1787928303 26.67° C 35% 1018.2 hPa 0 mm - 0 W/m² -
1787927406 27.22° C 26% 1018 hPa 0 mm - 0 W/m² -
1787927404 27.22° C 35% 1018.2 hPa 0 mm - 0 W/m² -
1787926503 26.67° C 36% 1018.4 hPa 0 mm - 0 W/m² -
1787925606 26.11° C 27% 1018.4 hPa 0 mm - 0 W/m² -
1787925606 26.67° C 36% 1018.6 hPa 0 mm - 0 W/m² -
1787924706 26.11° C 28% 1018.5 hPa 0 mm - 0 W/m² -
1787924704 26.67° C 36% 1018.7 hPa 0 mm - 0 W/m² -
1787923807 26.67° C 26% 1018.8 hPa 0 mm - 0 W/m² -

* Rain latest hour (hover to see other rain measurements)
** Current wind speed in m/s (hover to see current wind gust speed)